CWSA

Sable Island Airport

Nova Scotia, Canada
Issued Wind Visibility Ceiling Temperature Dew Point Humidity Barometer
Sep-22
14:11 UTC
080°
12 KTS
9 miles Broken
5,500' AGL
16° C
61° F
14° C
57° F
88% 30.15" Hg
1021 hPa
VFR
Sep-22
13:32 UTC
080°
11 KTS
Gust 16 KTS
9 miles Overcast
5,500' AGL
16° C
61° F
14° C
57° F
88% 30.15" Hg
1021.2 hPa
VFR
Sep-22
13:00 UTC
080°
9 KTS
9 miles Overcast
5,500' AGL
16° C
61° F
14° C
57° F
88% 30.17" Hg
1021.6 hPa
VFR
Sep-22
12:00 UTC
070°
10 KTS
9 miles Broken
8,700' AGL
16° C
61° F
14° C
57° F
88% 30.16" Hg
1021.4 hPa
VFR
Sep-22
11:23 UTC
070°
8 KTS
9 miles Overcast
8,700' AGL
16° C
61° F
14° C
57° F
88% 30.16" Hg
1021.3 hPa
VFR
Sep-22
11:02 UTC
070°
9 KTS
  Broken
7,000' AGL
16° C
61° F
14° C
57° F
88% 30.15" Hg
1021.2 hPa
Sep-22
10:43 UTC
070°
8 KTS
9 miles Broken
9,100' AGL
16° C
61° F
13° C
55° F
83% 30.15" Hg
1021.1 hPa
VFR
Sep-22
10:00 UTC
090°
8 KTS
9 miles Overcast
9,200' AGL
16° C
61° F
13° C
55° F
83% 30.14" Hg
1020.9 hPa
VFR
Sep-22
09:00 UTC
090°
10 KTS
9 miles   15° C
59° F
13° C
55° F
88% 30.14" Hg
1020.6 hPa
VFR
Sep-22
08:00 UTC
080°
11 KTS
9 miles   15° C
59° F
12° C
54° F
82% 30.14" Hg
1020.6 hPa
VFR
Sep-22
07:00 UTC
080°
10 KTS
Gust 15 KTS
9 miles   15° C
59° F
12° C
54° F
82% 30.14" Hg
1020.6 hPa
VFR
Sep-22
06:00 UTC
080°
11 KTS
Gust 16 KTS
9 miles   15° C
59° F
12° C
54° F
82% 30.15" Hg
1021 hPa
VFR
Sep-22
05:00 UTC
080°
13 KTS
9 miles   14° C
57° F
12° C
54° F
88% 30.15" Hg
1021.1 hPa
VFR
Sep-22
04:00 UTC
070°
14 KTS
Gust 19 KTS
9 miles   15° C
59° F
11° C
52° F
77% 30.14" Hg
1020.9 hPa
VFR
Sep-22
03:00 UTC
060°
15 KTS
9 miles   15° C
59° F
12° C
54° F
82% 30.14" Hg
1020.9 hPa
VFR
Sep-22
02:00 UTC
070°
15 KTS
9 miles   15° C
59° F
11° C
52° F
77% 30.14" Hg
1020.8 hPa
VFR
Sep-22
01:00 UTC
060°
15 KTS
Gust 21 KTS
9 miles   15° C
59° F
11° C
52° F
77% 30.14" Hg
1020.6 hPa
VFR
Sep-22
00:00 UTC
060°
17 KTS
Gust 22 KTS
9 miles   16° C
61° F
11° C
52° F
72% 30.13" Hg
1020.3 hPa
VFR
Sep-21
23:00 UTC
050°
17 KTS
Gust 22 KTS
9 miles   16° C
61° F
11° C
52° F
72% 30.11" Hg
1019.9 hPa
VFR
Sep-21
22:00 UTC
050°
14 KTS
Gust 20 KTS
9 miles   16° C
61° F
12° C
54° F
77% 30.1" Hg
1019.5 hPa
VFR
Sep-21
21:00 UTC
040°
17 KTS
Gust 23 KTS
9 miles   17° C
63° F
14° C
57° F
83% 30.09" Hg
1019.2 hPa
VFR
Sep-21
20:00 UTC
040°
14 KTS
Gust 19 KTS
9 miles   18° C
64° F
15° C
59° F
83% 30.08" Hg
1018.6 hPa
VFR
Sep-21
19:00 UTC
040°
14 KTS
9 miles   18° C
64° F
16° C
61° F
88% 30.06" Hg
1018.2 hPa
VFR
Sep-21
18:00 UTC
040°
13 KTS
9 miles   19° C
66° F
16° C
61° F
83% 30.06" Hg
1018.1 hPa
VFR
Sep-21
17:00 UTC
040°
13 KTS
Gust 18 KTS
9 miles   19° C
66° F
16° C
61° F
83% 30.06" Hg
1017.9 hPa
VFR
Sep-21
16:00 UTC
040°
13 KTS
9 miles   19° C
66° F
16° C
61° F
83% 30.06" Hg
1018 hPa
VFR